SCP
-0 0 0 0 0 0 0 0 0 0 0 0 0 0 0 0 0 0 0 0 0 0 0 0 0 0 0 0 0 0 0 0 0 -0 0 -0 0 0 0 0 0 0 0 0
-0 0 0 0 0 0 0 0 0 0 0 0 0 0 0 0 0 0 0 0 0 0 0 0 0 0 0 0 0 0 0 0 -0 0 -0 0 0 0 0 0 0 0 0 0
-0 0 0 0 0 0 0 0 0 0 0 0 0 0 0 0 0 0 0 0 0 0 0 0 0 0 0 0 0 0 0 0 0 0 0 0 -0 0 0 0 0 0 0 0
-0 -0 0 0 0 0 0 0 0 0 0 0 0 0 0 0 0 0 0 0 0 0 0 0 0 0 0 0 -0 0 0 0 0 0 -0 0 0 0 0 0 0 0 0 0
-0 -0 -0 -0 0 0 0 0 0 0 0 0 0 0 0 0 0 -0 0 -0 0 0 0 0 0 0 0 0 0 -0 0 0 0 0 0 0 0 -0 -0 -0 0 -0 0 0
-0 -0 -0 -0 0 0 0 0 0 0 0 0 0 0 0 0 0 0 0 0 0 0 0 0 0 0 0 0 0 0 0 0 0 0 0 0 0 0 0 0 0 0 0 0
0 -0 -0 -0 -0 -0 0 0 0 0 0 0 0 0 0 0 0 0 -0 0 0 0 0 0 0 0 0 0 0 0 0 0 0 0 0 0 0 0 0 0 -0 -0 0 0
-0 -0 -0 -0 -0 -0 0 0 0 0 0 0 0 0 0 0 0 0 -0 0 0 0 0 0 0 0 0 0 0 0 0 0 0 0 0 0 0 0 0 0 0 0 0 0
-0 0 -0 -0 -0 -0 0 -0 0 0 0 0 0 0 0 0 0 0 0 0 0 0 0 0 0 0 0 0 0 0 0 0 0 0 0 0 0 0 0 0 0 0 0 0
-0 -0 -0 -0 -0 -0 -0 0 0 0 0 0 0 0 0 0 0 0 0 0 0 0 0 0 0 0 0 0 0 0 0 0 0 0 0 0 0 0 0 0 0 0 0 0
-0 -0 -0 -0 -0 -0 0 0 0 0 0 -0 0 0 0 0 0 0 0 0 0 0 0 0 0 0 0 0 0 -0 0 0 0 0 0 0 0 0 0 0 0 0 0 0
0 0 0 -0 -0 -0 -0 0 0 -0 0 0 0 0 0 0 0 0 0 0 0 0 0 0 0 0 0 0 0 0 0 0 0 0 0 0 0 0 0 0 0 0 0 0
0 0 0 0 0 -0 -0 0 0 0 0 -0 -0 0 0 0 0 -0 -0 0 0 0 0 0 0 0 0 0 0 0 0 0 0 -0 0 -0 0 0 0 0 0 0 0 0
0 0 0 0 0 -0 0 0 0 0 0 0 -0 0 0 0 0 0 -0 0 0 -0 0 -0 0 0 0 0 0 0 0 0 0 0 0 0 0 0 0 0 0 0 0 0
0 0 0 0 0 -0 0 0 0 0 0 0 0 0 0 -0 0 0 0 0 0 0 0 -0 0 0 0 0 0 0 0 0 0 0 0 0 0 0 0 0 0 0 0 0
0 0 0 0 0 0 0 0 0 0 -0 0 0 0 0 0 0 0 0 -0 -0 0 0 0 0 0 0 0 0 0 0 0 0 0 0 0 0 0 0 0 0 0 0 0
0 0 0 0 0 0 0 0 0 0 0 0 -0 0 0 0 0 0 0 0 0 0 0 0 0 0 0 0 0 0 0 0 0 0 0 0 0 -0 0 0 0 0 0 0
0 0 0 0 0 0 0 0 0 0 0 0 -0 0 0 0 0 0 0 0 0 0 0 0 0 0 0 0 0 0 0 0 0 0 0 0 0 0 0 0 0 0 0 0
0 0 0 0 0 0 0 0 0 0 0 0 0 0 0 0 0 0 0 0 0 0 0 0 0 0 0 0 0 0 0 0 0 0 0 0 0 0 0 0 0 0 0 0
0 0 0 0 0 0 0 0 0 0 0 0 0 0 0 0 0 0 0 0 0 0 0 0 0 0 0 0 0 0 0 0 0 0 0 0 0 0 0 0 0 0 0 0
0 0 0 0 0 0 0 0 0 0 0 0 0 0 0 0 0 0 0 0 0 0 0 0 0 0 0 0 0 0 0 0 0 0 0 0 0 0 0 0 0 0 0 0
0 0 0 0 0 0 0 0 0 0 0 0 0 0 0 0 0 0 0 0 0 0 0 0 0 0 0 0 0 0 0 0 0 0 0 0 0 0 0 0 0 0 0 0
0 0 0 0 0 0 0 0 0 0 0 0 0 0 0 0 0 0 0 0 0 0 0 0 0 0 0 0 0 0 0 0 0 0 0 0 0 0 0 0 0 0 0 0
0 0 0 0 0 0 0 0 0 0 0 0 0 0 0 0 0 0 0 0 0 0 0 0 0 0 0 0 0 0 0 0 0 0 0 0 0 0 0 0 0 0 0 0
0 0 0 0 0 0 0 0 0 0 0 0 0 0 0 0 0 0 0 0 0 0 0 0 0 0 0 0 0 0 0 0 0 0 0 0 0 0 0 0 0 0 0 0
0 0 0 0 0 0 0 0 0 0 0 0 0 0 0 0 0 0 0 0 0 -0 0 0 0 0 0 0 0 0 0 0 0 0 0 0 0 0 0 0 0 0 0 0
0 0 0 0 0 0 0 0 0 0 0 0 0 0 0 0 -0 -0 0 0 0 0 0 0 0 0 0 0 0 0 0 0 0 0 0 0 0 0 0 0 0 0 0 0
Wind_Speed_500mb
46 39 41 37 32 25 22 17 7 12 52 18 9 16 29 19 39 26 22 16 25 25 21 12 15 7 10 11 26 9 23 12 18 32 38 36 45 37 31 6 8 11 5 10
45 40 40 39 35 32 26 20 28 28 38 15 17 21 37 41 41 31 23 26 23 29 22 10 22 4 9 8 19 18 17 12 16 12 21 22 24 30 27 34 20 10 4 7
45 41 44 40 35 35 38 9 8 32 30 30 22 30 36 37 47 39 39 35 28 32 29 23 18 14 12 8 7 20 19 13 17 10 9 21 23 31 41 40 17 12 16 23
47 46 41 46 40 43 37 15 11 13 12 23 26 31 10 36 37 35 36 38 37 34 28 30 34 33 31 17 11 5 7 14 23 23 9 22 5 13 32 34 37 21 15 28
47 47 49 44 46 45 53 10 9 28 30 32 32 35 38 37 33 39 35 37 32 33 31 33 32 26 16 17 6 12 12 17 22 26 23 18 23 31 35 29 38 25 19 25
44 46 53 56 53 54 43 41 25 33 19 31 25 24 34 41 37 39 36 36 33 33 20 15 22 30 8 21 19 13 12 12 18 20 21 25 16 17 21 17 16 15 19 19
40 40 46 62 64 68 57 42 39 20 18 24 25 35 33 29 34 41 36 32 30 8 10 16 19 26 26 26 26 27 23 19 14 15 16 8 12 22 6 13 23 26 23 14
46 47 49 49 71 76 70 59 41 40 17 30 36 39 33 19 21 30 28 34 40 11 2 7 12 16 21 36 38 36 29 22 10 9 13 24 35 12 6 12 15 13 19 23
51 50 54 57 61 80 82 74 67 36 22 29 45 32 39 20 13 8 32 29 7 11 5 5 10 13 19 15 14 42 35 25 17 11 13 11 10 31 13 17 10 12 22 2
59 58 58 60 60 81 91 81 77 55 22 41 32 29 24 39 26 16 10 17 9 10 4 9 14 23 26 13 11 30 27 21 23 18 14 10 17 10 13 12 9 19 24 31
46 54 61 61 69 71 96 97 68 81 39 50 36 44 38 31 22 12 5 1 7 5 5 7 13 9 10 19 12 23 22 18 12 15 11 22 6 9 12 17 23 15 24 25
46 49 52 58 62 77 84 69 89 63 61 24 38 66 48 33 22 8 5 8 5 13 10 11 5 8 4 17 6 26 12 14 11 15 13 10 21 36 25 22 25 27 28 26
54 51 50 53 46 55 81 88 77 65 53 50 60 59 42 42 40 28 8 4 10 9 14 7 6 11 10 6 10 4 6 17 4 9 7 24 19 35 30 31 32 30 26 24
59 59 55 57 57 57 59 87 77 85 23 14 31 36 69 47 29 38 31 27 22 19 19 7 7 7 12 9 14 7 1 1 26 18 19 25 34 21 19 31 28 24 24 26
64 63 60 56 60 58 62 98 87 93 49 15 37 32 33 38 59 27 33 32 23 16 6 5 7 9 10 11 7 8 11 14 9 7 19 19 19 26 26 23 22 22 25 24
60 57 60 51 53 52 75 20 65 85 87 12 6 15 40 29 40 44 29 31 25 20 8 6 13 20 5 5 1 11 24 28 37 9 22 18 22 28 24 20 21 21 18 18
55 53 57 50 60 69 62 19 32 90 63 9 5 6 18 33 32 33 28 28 17 16 6 8 9 8 13 4 2 12 24 20 26 29 27 17 30 17 26 29 27 22 22 25
46 52 53 54 72 72 34 17 18 75 33 11 5 6 8 33 14 13 19 14 18 15 6 7 9 7 10 6 15 19 24 17 29 33 26 17 19 22 24 24 24 20 19 19
43 52 81 76 50 22 23 26 65 63 15 11 10 6 5 27 11 11 8 13 4 8 5 5 7 7 9 11 19 22 25 23 26 26 18 24 24 23 22 19 19 16 18 16
78 78 29 15 30 71 83 41 12 14 9 8 5 6 4 10 9 8 8 6 4 5 9 4 4 6 18 15 16 19 22 24 26 25 27 27 24 24 23 18 16 16 12 12
26 9 18 80 78 32 9 10 10 13 8 14 8 11 7 3 6 5 8 5 6 6 6 7 7 6 10 15 18 21 23 22 20 18 19 19 17 18 15 17 18 15 14 16
29 51 49 29 13 9 8 7 6 9 8 6 4 8 8 7 3 1 5 5 3 2 10 4 7 7 19 22 23 22 22 22 22 22 21 19 19 16 13 15 16 20 22 22
43 19 12 1 5 3 7 12 7 8 4 6 8 7 6 6 2 3 5 8 2 3 3 6 8 19 18 18 19 21 22 21 21 22 23 21 18 19 21 22 22 21 27 27
12 6 8 10 7 9 9 9 8 7 9 15 11 10 4 5 3 3 4 5 4 1 7 8 10 18 18 18 17 16 19 19 19 22 21 21 26 29 29 29 25 27 31 32
12 11 8 8 8 13 8 9 15 10 7 7 11 11 7 5 4 3 5 4 6 11 8 9 21 18 16 16 16 16 17 19 21 21 23 24 25 28 30 27 28 30 33 32
10 15 6 5 16 15 24 21 19 11 8 5 1 5 6 6 3 5 10 7 10 7 9 20 16 14 14 14 17 17 18 19 21 22 23 25 27 29 31 30 30 29 28 29
9 9 19 16 21 20 17 18 15 15 10 5 4 7 6 2 6 7 10 7 11 18 18 16 17 15 13 14 16 17 18 19 20 22 22 24 24 25 27 29 26 23 22 20
Wind_Direction_500mb
267 267 267 256 255 253 229 242 235 270 189 190 209 218 223 281 278 260 250 267 282 287 291 280 291 139 11 20 343 5 264 249 247 264 288 223 206 207 197 221 193 230 279 282
263 258 254 252 251 234 232 237 232 259 196 212 216 234 245 252 265 264 251 237 250 265 271 263 252 163 155 29 352 13 338 243 253 282 237 227 229 218 221 215 253 202 178 318
263 256 247 246 243 234 238 252 222 236 219 237 248 231 230 245 240 258 261 262 255 254 255 254 262 258 176 99 321 345 303 270 284 269 283 304 244 260 192 222 232 251 233 250
255 249 246 238 230 230 224 233 235 230 205 226 233 255 253 242 239 227 244 255 254 251 256 254 255 260 268 253 166 244 281 289 303 309 222 293 312 17 307 216 214 230 240 253
254 245 234 231 227 223 219 215 209 252 247 258 229 227 240 255 260 252 228 246 253 251 249 257 268 276 316 333 353 257 283 284 306 302 302 264 279 194 233 185 231 208 256 252
246 242 233 227 223 212 214 225 235 267 264 257 243 248 243 240 249 271 273 261 232 249 265 2 300 304 248 269 286 275 273 285 293 283 308 323 295 255 272 283 279 273 261 275
263 257 235 224 217 216 213 217 223 234 253 252 254 246 234 248 250 252 258 309 304 106 358 308 269 260 266 255 255 252 253 257 262 282 289 259 246 273 313 296 243 248 267 126
256 247 247 236 215 215 214 219 217 227 247 255 251 252 257 240 263 276 252 261 261 98 113 283 262 236 241 243 238 232 233 230 267 236 241 269 292 290 255 301 321 28 43 42
260 253 241 242 225 211 217 216 220 234 242 244 254 264 260 248 238 319 257 234 102 60 67 262 247 245 216 194 220 210 217 218 226 252 228 245 246 260 323 272 230 69 41 58
255 249 241 236 232 212 213 218 218 220 242 245 260 264 258 255 243 237 267 186 142 104 136 228 246 254 255 232 206 176 200 203 216 231 248 275 249 52 348 217 79 45 33 23
250 245 238 238 227 222 207 217 211 212 228 246 251 259 270 278 274 283 73 261 127 118 197 237 238 259 253 261 181 187 179 187 197 227 244 240 222 307 310 80 81 49 50 34
252 245 238 231 239 223 210 209 210 212 217 243 244 252 261 275 296 230 233 282 140 177 223 235 272 259 284 272 269 172 192 203 194 190 215 266 53 91 91 76 70 45 39 32
248 237 229 222 219 217 212 204 207 199 216 246 258 254 257 257 255 257 213 236 234 256 346 319 282 263 279 273 262 230 333 249 75 284 35 49 37 64 67 59 56 47 32 31
242 230 226 223 220 215 213 200 198 193 176 226 259 251 244 238 253 241 249 240 267 298 328 279 260 259 274 269 266 251 355 220 216 206 66 91 60 70 44 61 52 39 30 29
236 225 219 218 214 213 212 204 199 203 185 200 240 249 235 228 229 244 233 230 242 277 290 207 254 257 282 297 307 36 30 0 6 73 39 76 99 59 39 47 29 24 14 8
220 210 206 204 198 197 173 143 191 207 202 287 279 282 222 214 209 210 223 227 232 237 227 276 279 271 12 332 341 37 49 55 46 43 356 60 62 54 38 34 24 22 30 22
190 192 193 190 183 188 169 163 198 199 200 232 286 269 204 202 189 207 218 220 215 206 205 257 263 341 340 219 44 31 25 42 41 26 14 28 28 21 9 13 16 18 20 16
173 175 176 176 182 178 153 189 187 181 176 150 237 264 138 171 159 178 192 181 179 199 225 256 253 224 187 65 64 43 21 8 28 13 17 37 17 18 16 10 9 12 21 16
152 160 155 140 137 130 142 123 143 160 151 189 212 212 188 166 155 141 123 163 168 205 224 227 274 21 56 40 26 28 17 14 356 354 11 11 11 6 3 7 15 19 25 24
126 125 113 98 124 126 127 126 120 159 237 250 231 171 123 190 147 137 128 159 180 211 203 192 79 78 74 39 31 27 15 7 3 5 1 358 359 359 2 39 29 32 35 42
116 77 84 125 131 122 95 140 165 170 198 207 217 166 141 187 184 143 194 174 189 225 153 202 138 91 65 46 39 32 23 15 17 15 21 18 8 4 19 38 39 40 50 63
132 124 114 104 127 163 156 156 152 198 145 118 159 86 81 102 115 344 173 177 199 237 141 215 87 78 53 40 37 32 22 23 34 34 34 35 36 39 53 60 61 67 71 77
107 104 47 360 31 150 174 156 156 118 47 122 144 108 98 111 153 187 177 208 102 253 102 66 61 71 47 37 28 34 31 38 41 45 50 51 55 74 76 79 90 99 97 99
65 49 62 8 72 53 30 28 65 77 54 89 109 102 76 47 82 331 85 27 291 207 144 72 86 67 60 53 50 49 46 47 56 58 63 71 80 81 84 83 88 96 92 91
57 25 56 65 94 70 58 59 82 55 47 54 109 85 74 49 99 39 130 152 84 27 59 84 79 71 66 61 64 71 71 68 69 69 76 81 86 86 86 90 94 98 102 100
61 40 93 12 103 70 47 52 64 44 38 23 106 115 96 54 56 67 19 337 49 60 74 94 92 86 81 79 73 72 76 77 79 84 88 92 93 94 96 99 98 98 98 94
56 53 22 62 65 60 49 30 11 33 353 41 352 58 57 148 72 69 12 34 94 103 92 87 85 89 88 88 89 90 89 91 94 97 96 95 94 94 93 89 86 81 74 71
Wind_Speed_850mb
46 39 41 37 32 25 22 17 7 12 52 18 9 16 29 19 39 26 22 16 25 25 21 12 15 7 10 11 26 9 23 12 18 32 38 36 45 37 31 6 8 11 5 10
45 40 40 39 35 32 26 20 28 28 38 15 17 21 37 41 41 31 23 26 23 29 22 10 22 4 9 8 19 18 17 12 16 12 21 22 24 30 27 34 20 10 4 7
45 41 44 40 35 35 38 9 8 32 30 30 22 30 36 37 47 39 39 35 28 32 29 23 18 14 12 8 7 20 19 13 17 10 9 21 23 31 41 40 17 12 16 23
47 46 41 46 40 43 37 15 11 13 12 23 26 31 10 36 37 35 36 38 37 34 28 30 34 33 31 17 11 5 7 14 23 23 9 22 5 13 32 34 37 21 15 28
47 47 49 44 46 45 53 10 9 28 30 32 32 35 38 37 33 39 35 37 32 33 31 33 32 26 16 17 6 12 12 17 22 26 23 18 23 31 35 29 38 25 19 25
44 46 53 56 53 54 43 41 25 33 19 31 25 24 34 41 37 39 36 36 33 33 20 15 22 30 8 21 19 13 12 12 18 20 21 25 16 17 21 17 16 15 19 19
40 40 46 62 64 68 57 42 39 20 18 24 25 35 33 29 34 41 36 32 30 8 10 16 19 26 26 26 26 27 23 19 14 15 16 8 12 22 6 13 23 26 23 14
46 47 49 49 71 76 70 59 41 40 17 30 36 39 33 19 21 30 28 34 40 11 2 7 12 16 21 36 38 36 29 22 10 9 13 24 35 12 6 12 15 13 19 23
51 50 54 57 61 80 82 74 67 36 22 29 45 32 39 20 13 8 32 29 7 11 5 5 10 13 19 15 14 42 35 25 17 11 13 11 10 31 13 17 10 12 22 2
59 58 58 60 60 81 91 81 77 55 22 41 32 29 24 39 26 16 10 17 9 10 4 9 14 23 26 13 11 30 27 21 23 18 14 10 17 10 13 12 9 19 24 31
46 54 61 61 69 71 96 97 68 81 39 50 36 44 38 31 22 12 5 1 7 5 5 7 13 9 10 19 12 23 22 18 12 15 11 22 6 9 12 17 23 15 24 25
46 49 52 58 62 77 84 69 89 63 61 24 38 66 48 33 22 8 5 8 5 13 10 11 5 8 4 17 6 26 12 14 11 15 13 10 21 36 25 22 25 27 28 26
54 51 50 53 46 55 81 88 77 65 53 50 60 59 42 42 40 28 8 4 10 9 14 7 6 11 10 6 10 4 6 17 4 9 7 24 19 35 30 31 32 30 26 24
59 59 55 57 57 57 59 87 77 85 23 14 31 36 69 47 29 38 31 27 22 19 19 7 7 7 12 9 14 7 1 1 26 18 19 25 34 21 19 31 28 24 24 26
64 63 60 56 60 58 62 98 87 93 49 15 37 32 33 38 59 27 33 32 23 16 6 5 7 9 10 11 7 8 11 14 9 7 19 19 19 26 26 23 22 22 25 24
60 57 60 51 53 52 75 20 65 85 87 12 6 15 40 29 40 44 29 31 25 20 8 6 13 20 5 5 1 11 24 28 37 9 22 18 22 28 24 20 21 21 18 18
55 53 57 50 60 69 62 19 32 90 63 9 5 6 18 33 32 33 28 28 17 16 6 8 9 8 13 4 2 12 24 20 26 29 27 17 30 17 26 29 27 22 22 25
46 52 53 54 72 72 34 17 18 75 33 11 5 6 8 33 14 13 19 14 18 15 6 7 9 7 10 6 15 19 24 17 29 33 26 17 19 22 24 24 24 20 19 19
43 52 81 76 50 22 23 26 65 63 15 11 10 6 5 27 11 11 8 13 4 8 5 5 7 7 9 11 19 22 25 23 26 26 18 24 24 23 22 19 19 16 18 16
78 78 29 15 30 71 83 41 12 14 9 8 5 6 4 10 9 8 8 6 4 5 9 4 4 6 18 15 16 19 22 24 26 25 27 27 24 24 23 18 16 16 12 12
26 9 18 80 78 32 9 10 10 13 8 14 8 11 7 3 6 5 8 5 6 6 6 7 7 6 10 15 18 21 23 22 20 18 19 19 17 18 15 17 18 15 14 16
29 51 49 29 13 9 8 7 6 9 8 6 4 8 8 7 3 1 5 5 3 2 10 4 7 7 19 22 23 22 22 22 22 22 21 19 19 16 13 15 16 20 22 22
43 19 12 1 5 3 7 12 7 8 4 6 8 7 6 6 2 3 5 8 2 3 3 6 8 19 18 18 19 21 22 21 21 22 23 21 18 19 21 22 22 21 27 27
12 6 8 10 7 9 9 9 8 7 9 15 11 10 4 5 3 3 4 5 4 1 7 8 10 18 18 18 17 16 19 19 19 22 21 21 26 29 29 29 25 27 31 32
12 11 8 8 8 13 8 9 15 10 7 7 11 11 7 5 4 3 5 4 6 11 8 9 21 18 16 16 16 16 17 19 21 21 23 24 25 28 30 27 28 30 33 32
10 15 6 5 16 15 24 21 19 11 8 5 1 5 6 6 3 5 10 7 10 7 9 20 16 14 14 14 17 17 18 19 21 22 23 25 27 29 31 30 30 29 28 29
9 9 19 16 21 20 17 18 15 15 10 5 4 7 6 2 6 7 10 7 11 18 18 16 17 15 13 14 16 17 18 19 20 22 22 24 24 25 27 29 26 23 22 20
Wind_Direction_850mb
267 267 267 256 255 253 229 242 235 270 189 190 209 218 223 281 278 260 250 267 282 287 291 280 291 139 11 20 343 5 264 249 247 264 288 223 206 207 197 221 193 230 279 282
263 258 254 252 251 234 232 237 232 259 196 212 216 234 245 252 265 264 251 237 250 265 271 263 252 163 155 29 352 13 338 243 253 282 237 227 229 218 221 215 253 202 178 318
263 256 247 246 243 234 238 252 222 236 219 237 248 231 230 245 240 258 261 262 255 254 255 254 262 258 176 99 321 345 303 270 284 269 283 304 244 260 192 222 232 251 233 250
255 249 246 238 230 230 224 233 235 230 205 226 233 255 253 242 239 227 244 255 254 251 256 254 255 260 268 253 166 244 281 289 303 309 222 293 312 17 307 216 214 230 240 253
254 245 234 231 227 223 219 215 209 252 247 258 229 227 240 255 260 252 228 246 253 251 249 257 268 276 316 333 353 257 283 284 306 302 302 264 279 194 233 185 231 208 256 252
246 242 233 227 223 212 214 225 235 267 264 257 243 248 243 240 249 271 273 261 232 249 265 2 300 304 248 269 286 275 273 285 293 283 308 323 295 255 272 283 279 273 261 275
263 257 235 224 217 216 213 217 223 234 253 252 254 246 234 248 250 252 258 309 304 106 358 308 269 260 266 255 255 252 253 257 262 282 289 259 246 273 313 296 243 248 267 126
256 247 247 236 215 215 214 219 217 227 247 255 251 252 257 240 263 276 252 261 261 98 113 283 262 236 241 243 238 232 233 230 267 236 241 269 292 290 255 301 321 28 43 42
260 253 241 242 225 211 217 216 220 234 242 244 254 264 260 248 238 319 257 234 102 60 67 262 247 245 216 194 220 210 217 218 226 252 228 245 246 260 323 272 230 69 41 58
255 249 241 236 232 212 213 218 218 220 242 245 260 264 258 255 243 237 267 186 142 104 136 228 246 254 255 232 206 176 200 203 216 231 248 275 249 52 348 217 79 45 33 23
250 245 238 238 227 222 207 217 211 212 228 246 251 259 270 278 274 283 73 261 127 118 197 237 238 259 253 261 181 187 179 187 197 227 244 240 222 307 310 80 81 49 50 34
252 245 238 231 239 223 210 209 210 212 217 243 244 252 261 275 296 230 233 282 140 177 223 235 272 259 284 272 269 172 192 203 194 190 215 266 53 91 91 76 70 45 39 32
248 237 229 222 219 217 212 204 207 199 216 246 258 254 257 257 255 257 213 236 234 256 346 319 282 263 279 273 262 230 333 249 75 284 35 49 37 64 67 59 56 47 32 31
242 230 226 223 220 215 213 200 198 193 176 226 259 251 244 238 253 241 249 240 267 298 328 279 260 259 274 269 266 251 355 220 216 206 66 91 60 70 44 61 52 39 30 29
236 225 219 218 214 213 212 204 199 203 185 200 240 249 235 228 229 244 233 230 242 277 290 207 254 257 282 297 307 36 30 0 6 73 39 76 99 59 39 47 29 24 14 8
220 210 206 204 198 197 173 143 191 207 202 287 279 282 222 214 209 210 223 227 232 237 227 276 279 271 12 332 341 37 49 55 46 43 356 60 62 54 38 34 24 22 30 22
190 192 193 190 183 188 169 163 198 199 200 232 286 269 204 202 189 207 218 220 215 206 205 257 263 341 340 219 44 31 25 42 41 26 14 28 28 21 9 13 16 18 20 16
173 175 176 176 182 178 153 189 187 181 176 150 237 264 138 171 159 178 192 181 179 199 225 256 253 224 187 65 64 43 21 8 28 13 17 37 17 18 16 10 9 12 21 16
152 160 155 140 137 130 142 123 143 160 151 189 212 212 188 166 155 141 123 163 168 205 224 227 274 21 56 40 26 28 17 14 356 354 11 11 11 6 3 7 15 19 25 24
126 125 113 98 124 126 127 126 120 159 237 250 231 171 123 190 147 137 128 159 180 211 203 192 79 78 74 39 31 27 15 7 3 5 1 358 359 359 2 39 29 32 35 42
116 77 84 125 131 122 95 140 165 170 198 207 217 166 141 187 184 143 194 174 189 225 153 202 138 91 65 46 39 32 23 15 17 15 21 18 8 4 19 38 39 40 50 63
132 124 114 104 127 163 156 156 152 198 145 118 159 86 81 102 115 344 173 177 199 237 141 215 87 78 53 40 37 32 22 23 34 34 34 35 36 39 53 60 61 67 71 77
107 104 47 360 31 150 174 156 156 118 47 122 144 108 98 111 153 187 177 208 102 253 102 66 61 71 47 37 28 34 31 38 41 45 50 51 55 74 76 79 90 99 97 99
65 49 62 8 72 53 30 28 65 77 54 89 109 102 76 47 82 331 85 27 291 207 144 72 86 67 60 53 50 49 46 47 56 58 63 71 80 81 84 83 88 96 92 91
57 25 56 65 94 70 58 59 82 55 47 54 109 85 74 49 99 39 130 152 84 27 59 84 79 71 66 61 64 71 71 68 69 69 76 81 86 86 86 90 94 98 102 100
61 40 93 12 103 70 47 52 64 44 38 23 106 115 96 54 56 67 19 337 49 60 74 94 92 86 81 79 73 72 76 77 79 84 88 92 93 94 96 99 98 98 98 94
56 53 22 62 65 60 49 30 11 33 353 41 352 58 57 148 72 69 12 34 94 103 92 87 85 89 88 88 89 90 89 91 94 97 96 95 94 94 93 89 86 81 74 71